Location: Appleton
(44.2618°N, 88.4157°W)
Time: 01:33:53
(UTC+00:00)

Tiros 1 despin weight - Pass Details

Date: 08 March 2021
Orbit: 593 x 641 km, 48.2° (Epoch: 10 April)

Event Time Altitude Azimuth Distance (km) Brightness Sun altitude
Exits shadow 09:55:14 13° 157° (SSE) 1,815 ? -26.0°
Drops below altitude 10° 09:55:51 10° 154° (SSE) 2,022 ? -25.9°
Sets 09:58:20 0° 144° (SE) 2,929 ? -25.5°
